{"data":{"norad_id":63790,"epoch":"2026-09-20T01:46:16.540320Z","epoch_age_seconds":186670,"freshness":"STALE","line1":"1 63790U 25091R   26263.07380255  .00016493  00000+0  60710-3 0  9990","line2":"2 63790  43.0040  34.4914 0001432 272.9996  87.0692 15.27602515 78581","mean_motion":15.27602515,"eccentricity":0.0001432,"inclination_deg":43.004,"raan_deg":34.4914,"arg_perigee_deg":272.9996,"mean_anomaly_deg":87.0692,"bstar":0.0006071,"rev_number":7858,"period_min":94.26535933662,"perigee_km":481.99916666316,"apogee_km":483.96419105279,"semimajor_km":6861.118678858,"source":"CELESTRAK","updated_at":"2026-09-21T09:00:35.100896Z"}}